Time,TemperatureF,DewpointF,PressureIn,WindDirection,WindDirectionDegrees,WindSpeedMPH,WindSpeedGustMPH,Humidity,HourlyPrecipIn,Conditions,Clouds,dailyrainin,SoftwareType,DateUTC
2013-06-10 00:10:00,80.0,-99.9,-100.00,SE,128,3.0,3.0,-999,-99.99,,,-99.99,,2013-06-10 05:10:00,
2013-06-10 00:32:00,80.0,-99.9,-100.00,SE,127,4.0,4.0,-999,-99.99,,,-99.99,,2013-06-10 05:32:00,
2013-06-10 00:42:00,80.0,-99.9,-100.00,SE,127,4.0,4.0,-999,-99.99,,,-99.99,,2013-06-10 05:42:00,
2013-06-10 00:50:00,77.0,-99.9,-100.00,ESE,117,2.0,2.0,-999,-99.99,,,-99.99,,2013-06-10 05:50:00,
2013-06-10 00:52:00,80.0,-99.9,-100.00,SE,128,3.0,3.0,-999,-99.99,,,-99.99,,2013-06-10 05:52:00,
2013-06-10 01:02:00,80.0,-99.9,-100.00,SE,128,3.0,3.0,-999,-99.99,,,-99.99,,2013-06-10 06:02:00,
2013-06-10 01:20:00,76.0,-99.9,-100.00,East,99,1.0,2.0,-999,-99.99,,,-99.99,,2013-06-10 06:20:00,
2013-06-10 01:32:00,77.0,-99.9,-100.00,ESE,117,2.0,2.0,-999,-99.99,,,-99.99,,2013-06-10 06:32:00,
2013-06-10 01:42:00,77.0,-99.9,-100.00,ESE,117,2.0,2.0,-999,-99.99,,,-99.99,,2013-06-10 06:42:00,
2013-06-10 02:03:00,76.0,-99.9,-100.00,East,99,1.0,2.0,-999,-99.99,,,-99.99,,2013-06-10 07:03:00,
2013-06-10 02:12:00,76.0,-99.9,-100.00,East,99,1.0,2.0,-999,-99.99,,,-99.99,,2013-06-10 07:12:00,
2013-06-10 05:20:00,71.0,-99.9,-100.00,SSW,198,0.0,1.0,-999,-99.99,,,-99.99,,2013-06-10 10:20:00,
2013-06-10 06:03:00,71.0,-99.9,-100.00,SSW,198,0.0,1.0,-999,-99.99,,,-99.99,,2013-06-10 11:03:00,
2013-06-10 06:12:00,71.0,-99.9,-100.00,SSW,198,0.0,1.0,-999,-99.99,,,-99.99,,2013-06-10 11:12:00,
2013-06-10 08:30:00,76.0,-99.9,-100.00,SSE,151,0.0,1.0,-999,-99.99,,,-99.99,,2013-06-10 13:30:00,
2013-06-10 09:02:00,80.0,-99.9,-100.00,WSW,252,3.0,3.0,-999,-99.99,,,-99.99,,2013-06-10 14:02:00,
2013-06-10 09:13:00,80.0,-99.9,-100.00,WSW,252,3.0,3.0,-999,-99.99,,,-99.99,,2013-06-10 14:13:00,
2013-06-10 09:22:00,76.0,-99.9,-100.00,SSE,151,0.0,1.0,-999,-99.99,,,-99.99,,2013-06-10 14:22:00,
2013-06-10 12:30:00,94.0,-99.9,-100.00,ESE,108,2.0,4.0,-999,-99.99,,,-99.99,,2013-06-10 17:30:00,
2013-06-10 13:25:00,94.0,-99.9,-100.00,ESE,108,2.0,4.0,-999,-99.99,,,-99.99,,2013-06-10 18:25:00,
2013-06-10 13:55:00,95.0,-99.9,-100.00,ESE,123,1.0,6.0,-999,-99.99,,,-99.99,,2013-06-10 18:55:00,
2013-06-10 14:03:00,95.0,-99.9,-100.00,ESE,123,1.0,6.0,-999,-99.99,,,-99.99,,2013-06-10 19:03:00,
2013-06-10 15:32:00,98.0,-99.9,-100.00,ESE,102,4.0,6.0,-999,-99.99,,,-99.99,,2013-06-10 20:32:00,
2013-06-10 15:43:00,98.0,-99.9,-100.00,ESE,102,4.0,6.0,-999,-99.99,,,-99.99,,2013-06-10 20:43:00,
2013-06-10 15:53:00,98.0,-99.9,-100.00,ESE,102,4.0,6.0,-999,-99.99,,,-99.99,,2013-06-10 20:53:00,
2013-06-10 16:02:00,99.0,-99.9,-100.00,NE,56,4.0,5.0,-999,-99.99,,,-99.99,,2013-06-10 21:02:00,
2013-06-10 16:13:00,99.0,-99.9,-100.00,NE,56,4.0,5.0,-999,-99.99,,,-99.99,,2013-06-10 21:13:00,
2013-06-10 16:23:00,99.0,-99.9,-100.00,NE,56,4.0,5.0,-999,-99.99,,,-99.99,,2013-06-10 21:23:00,
2013-06-10 18:10:00,98.0,-99.9,-100.00,East,100,4.0,7.0,-999,-99.99,,,-99.99,,2013-06-10 23:10:00,
2013-06-10 18:22:00,99.0,-99.9,-100.00,SSE,166,1.0,5.0,-999,-99.99,,,-99.99,,2013-06-10 23:22:00,
2013-06-10 18:32:00,99.0,-99.9,-100.00,SSE,166,1.0,5.0,-999,-99.99,,,-99.99,,2013-06-10 23:32:00,
2013-06-10 18:40:00,98.0,-99.9,-100.00,ESE,114,5.0,6.0,-999,-99.99,,,-99.99,,2013-06-10 23:40:00,
2013-06-10 18:42:00,99.0,-99.9,-100.00,SSE,166,1.0,5.0,-999,-99.99,,,-99.99,,2013-06-10 23:42:00,
2013-06-10 18:52:00,98.0,-99.9,-100.00,East,100,4.0,7.0,-999,-99.99,,,-99.99,,2013-06-10 23:52:00,
2013-06-10 19:02:00,98.0,-99.9,-100.00,East,100,4.0,7.0,-999,-99.99,,,-99.99,,2013-06-11 00:02:00,
2013-06-10 19:10:00,98.0,-99.9,-100.00,ESE,105,3.0,8.0,-999,-99.99,,,-99.99,,2013-06-11 00:10:00,
2013-06-10 19:22:00,98.0,-99.9,-100.00,ESE,114,5.0,6.0,-999,-99.99,,,-99.99,,2013-06-11 00:22:00,
2013-06-10 19:32:00,98.0,-99.9,-100.00,ESE,114,5.0,6.0,-999,-99.99,,,-99.99,,2013-06-11 00:32:00,
2013-06-10 19:52:00,98.0,-99.9,-100.00,ESE,105,3.0,8.0,-999,-99.99,,,-99.99,,2013-06-11 00:52:00,
2013-06-10 20:02:00,98.0,-99.9,-100.00,ESE,105,3.0,8.0,-999,-99.99,,,-99.99,,2013-06-11 01:02:00,
2013-06-10 21:03:00,93.0,-99.9,-100.00,SE,124,4.0,6.0,-999,-99.99,,,-99.99,,2013-06-11 02:03:00,
2013-06-10 21:12:00,93.0,-99.9,-100.00,SE,124,4.0,6.0,-999,-99.99,,,-99.99,,2013-06-11 02:12:00,
2013-06-10 21:23:00,93.0,-99.9,-100.00,SE,124,4.0,6.0,-999,-99.99,,,-99.99,,2013-06-11 02:23:00,